Cloud_Cover
98 100 100 100 95 100 100 99 100 100 100 100 100 100 100 100 95 47 21 34 5 8 92 99 100 92 92 81 8 37 100 97
6 100 100 100 100 100 100 100 100 100 100 100 100 100 100 73 45 70 2 5 5 21 55 100 100 100 88 63 83 31 100 100
98 97 73 100 100 100 100 100 100 100 100 100 100 100 100 100 73 82 84 40 4 65 78 100 100 100 92 100 89 88 100 100
41 5 42 48 100 100 100 100 100 100 97 100 100 100 100 100 50 74 20 99 5 26 73 89 100 100 100 100 85 100 100 64
5 36 8 61 55 91 100 100 100 100 100 100 100 100 100 100 100 62 75 18 5 52 75 87 100 100 100 100 92 100 100 48
0 0 1 5 28 99 100 100 100 100 100 100 100 100 100 100 100 97 100 66 5 44 98 100 100 100 100 95 99 100 100 5
0 0 0 1 5 20 79 100 100 100 100 100 100 100 100 100 100 100 100 96 5 19 100 100 100 100 99 100 100 100 67 7
3 0 0 0 5 5 81 37 100 100 100 100 100 100 100 100 100 100 100 94 46 40 100 100 100 100 100 100 100 78 98 38
1 0 0 0 0 5 30 98 100 100 100 100 100 100 100 100 100 100 100 100 100 100 100 100 100 100 100 100 100 48 10 29
0 0 0 0 0 0 32 50 100 100 100 100 100 100 100 100 100 100 100 100 100 100 100 100 100 100 100 100 96 81 9 39
0 0 0 0 0 0 1 25 99 100 100 100 100 100 100 100 100 100 100 100 100 100 100 100 100 100 100 100 100 98 63 41
0 0 0 0 0 0 0 5 93 100 100 100 100 100 100 100 100 100 100 100 99 100 100 100 88 100 100 100 100 82 100 42
0 0 0 0 0 0 0 0 7 100 100 100 100 100 100 100 100 100 100 100 100 100 100 100 100 92 100 100 100 100 100 100
0 0 0 0 0 0 0 0 2 72 100 100 100 100 100 100 100 100 100 100 99 100 100 100 100 100 100 100 100 100 90 100
3 1 0 0 0 0 0 0 0 33 100 100 100 100 100 100 100 100 100 100 100 100 100 100 100 100 100 100 100 100 98 98
5 0 0 0 0 0 0 0 0 5 86 100 100 100 100 100 100 100 100 100 100 100 100 100 100 100 100 100 100 100 100 100
6 5 3 0 0 0 0 0 0 5 14 99 100 100 100 100 100 100 100 100 100 100 100 100 100 100 100 100 100 100 100 94
96 5 0 0 0 0 0 0 0 5 5 34 100 100 100 100 100 100 100 100 100 100 100 100 100 100 100 100 100 100 100 100
92 20 1 0 0 0 0 0 3 5 5 6 9 100 100 100 100 100 100 100 100 100 100 100 100 100 100 100 100 100 100 99
100 10 1 0 2 4 0 0 5 5 9 6 69 54 100 100 100 100 100 100 100 100 100 100 100 100 100 100 100 97 100 100